Вернуться в каталог

SL-16 DEB

АктивенLEO
NORAD 39865·DEBRIS·🇷🇺 Russia

Запущен Dec 25, 1992 с Baikonur Cosmodrome

Loading…

Ближайшие Пролёты (ближайшие 24 часа)

TLE

СвежийSource: Space-Track

Эпоха: Sep 13, 2026, 07:00 UTC

1 39865U 92093LT  26256.29218522  .00001069  00000-0  36059-3 0  9998
2 39865  71.0115 225.9128 0005191 209.3945 150.6900 14.39242485641908

Отслеживайте SL-16 DEB в реальном времени с AllMySat

Download on the App Store